Sunlight Mountain, CO

2:31 PM MDT on August 18, 2017 (GMT -0600)
Sunlight Mountain

Weather History for K5SM - June, 2013

Change the Weather History Date:

Thursday, June 27, 2013

  Actual Average (KRIL) Record (KRIL)
Temperature  
Mean Temperature 65 °F -  
Max Temperature 75 °F 88 °F 101 °F (1990)
Min Temperature 55 °F 47 °F 35 °F (1960)
Growing Degree Days 15 (Base 50)    
Moisture  
Dew Point 30 °F    
Average Humidity 27    
Maximum Humidity 44    
Minimum Humidity 15    
Precipitation  
Precipitation 0.00 in - - ()
Sea Level Pressure  
Sea Level Pressure 30.73 in    
Wind  
Wind Speed 3 mph (NNE)    
Max Wind Speed 9 mph    
Max Gust Speed 17 mph    
Visibility 9 miles    
Events      
Averages and records for this station are not official NWS values.
T = Trace of Precipitation, MM = Missing Value Source: NWS Daily Summary

Daily Weather History Graph

Daily Weather History Graph

Search for Another Location

Airport or City:

Trip Planner

Search our weather history database for the weather conditions in past years. The results will help you decide how hot, cold, wet, or windy it might be!

Date:

Astronomy

Jun. 27, 2013 Rise Set
Actual Time 5:44 AM MDT 8:40 PM MDT
Civil Twilight 5:12 AM MDT 9:13 PM MDT
Nautical Twilight 4:31 AM MDT 9:53 PM MDT
Astronomical Twilight 3:43 AM MDT 10:41 PM MDT
Moon 11:41 PM MDT (6/27) 10:47 AM MDT (6/27)
Length of Visible Light 16h 00m
Length of Day
14h 56m
Waning Gibbous, 76% of the Moon is Illuminated
Jun 27
Waning Gibbous
Jun 29
Last Quarter
Jul 8
New
Jul 15
First Quarter
Jul 22
Full

Hourly Weather History & Observations

Time (MDT) Temp. Dew Point Humidity Pressure Visibility Wind Dir Wind Speed Gust Speed Precip Events Conditions
12:17 AM 64.4 °F 23.0 °F 21% 30.67 in 10.0 mi Calm Calm - N/A   Clear
12:36 AM 64.4 °F 24.8 °F 22% 30.67 in 10.0 mi Calm Calm - N/A   Clear
12:56 AM 62.6 °F 23.0 °F 22% 30.67 in 10.0 mi Calm Calm - N/A   Clear
1:16 AM 64.4 °F 23.0 °F 21% 30.66 in 10.0 mi Calm Calm - N/A   Clear
1:37 AM 62.6 °F 23.0 °F 22% 30.66 in 10.0 mi NW 3.5 mph - N/A   Clear
1:57 AM 64.4 °F 21.2 °F 19% 30.66 in 7.0 mi WNW 3.5 mph - N/A   Clear
2:16 AM 64.4 °F 21.2 °F 19% 30.66 in 10.0 mi Calm Calm - N/A   Clear
2:37 AM 62.6 °F 23.0 °F 22% 30.66 in 10.0 mi NW 3.5 mph - N/A   Clear
2:57 AM 60.8 °F 26.6 °F 27% 30.66 in 10.0 mi NNW 4.6 mph - N/A   Clear
3:17 AM 62.6 °F 24.8 °F 24% 30.66 in 10.0 mi NW 3.5 mph - N/A   Clear
3:37 AM 60.8 °F 26.6 °F 27% 30.66 in 10.0 mi NNW 4.6 mph - N/A   Clear
3:57 AM 60.8 °F 26.6 °F 27% 30.67 in 10.0 mi North 4.6 mph - N/A   Clear
4:17 AM 59.0 °F 26.6 °F 29% 30.67 in 10.0 mi NNE 3.5 mph - N/A   Clear
4:36 AM 57.2 °F 28.4 °F 33% 30.68 in 10.0 mi Calm Calm - N/A   Clear
4:57 AM 55.4 °F 28.4 °F 36% 30.68 in 7.0 mi NE 3.5 mph - N/A   Clear
5:17 AM 55.4 °F 30.2 °F 38% 30.68 in 7.0 mi NE 4.6 mph - N/A   Clear
5:37 AM 55.4 °F 30.2 °F 38% 30.68 in 7.0 mi NE 5.8 mph - N/A   Clear
5:57 AM 55.4 °F 28.4 °F 36% 30.69 in 7.0 mi NE 5.8 mph - N/A   Clear
6:16 AM 55.4 °F 30.2 °F 38% 30.69 in 7.0 mi NE 5.8 mph - N/A   Clear
6:37 AM 55.4 °F 32.0 °F 41% 30.70 in 7.0 mi NE 6.9 mph - N/A   Clear
6:57 AM 55.4 °F 33.8 °F 44% 30.71 in 7.0 mi NE 6.9 mph - N/A   Clear
7:17 AM 57.2 °F 32.0 °F 38% 30.72 in 7.0 mi NNE 9.2 mph 17.3 mph N/A   Clear
7:37 AM 59.0 °F 33.8 °F 39% 30.72 in 10.0 mi NE 6.9 mph - N/A   Clear
7:57 AM 59.0 °F 33.8 °F 39% 30.73 in 7.0 mi NE 4.6 mph - N/A   Clear
8:17 AM 60.8 °F 33.8 °F 36% 30.74 in 7.0 mi NE 4.6 mph - N/A   Clear
8:37 AM 60.8 °F 33.8 °F 36% 30.74 in 7.0 mi NE 5.8 mph - N/A   Clear
8:57 AM 62.6 °F 33.8 °F 34% 30.75 in 10.0 mi NE 3.5 mph - N/A   Clear
9:17 AM 64.4 °F 33.8 °F 32% 30.75 in 10.0 mi NE 5.8 mph - N/A   Clear
9:37 AM 64.4 °F 33.8 °F 32% 30.76 in 10.0 mi ENE 4.6 mph - N/A   Clear
9:57 AM 66.2 °F 33.8 °F 30% 30.77 in 10.0 mi ENE 3.5 mph - N/A   Clear
10:16 AM 68.0 °F 33.8 °F 28% 30.77 in 10.0 mi ENE 3.5 mph - N/A   Clear
10:37 AM 68.0 °F 35.6 °F 30% 30.77 in 10.0 mi Calm Calm - N/A   Clear
10:57 AM 69.8 °F 35.6 °F 28% 30.77 in 10.0 mi ENE 3.5 mph - N/A   Clear
11:17 AM 69.8 °F 35.6 °F 28% 30.78 in 10.0 mi East 3.5 mph - N/A   Clear
11:37 AM 69.8 °F 35.6 °F 28% 30.78 in 10.0 mi Calm Calm - N/A   Clear
11:57 AM 71.6 °F 33.8 °F 25% 30.78 in 10.0 mi Calm Calm - N/A   Clear
12:16 PM 69.8 °F 33.8 °F 27% 30.78 in 10.0 mi East 3.5 mph - N/A   Clear
12:37 PM 71.6 °F 32.0 °F 23% 30.79 in 10.0 mi NE 4.6 mph - N/A   Clear
12:57 PM 69.8 °F 33.8 °F 27% 30.78 in 10.0 mi Calm Calm - N/A   Clear
1:17 PM 71.6 °F 33.8 °F 25% 30.78 in 10.0 mi North 3.5 mph - N/A   Clear
1:37 PM 71.6 °F 32.0 °F 23% 30.78 in 10.0 mi WNW 5.8 mph - N/A   Clear
1:57 PM 71.6 °F 32.0 °F 23% 30.77 in 10.0 mi Calm Calm - N/A   Clear
2:17 PM 73.4 °F 33.8 °F 23% 30.77 in 10.0 mi Calm Calm - N/A   Clear
2:36 PM 73.4 °F 32.0 °F 22% 30.77 in 10.0 mi Calm Calm - N/A   Clear
2:57 PM 73.4 °F 33.8 °F 23% 30.76 in 10.0 mi Calm Calm - N/A   Clear
3:17 PM 73.4 °F 32.0 °F 22% 30.76 in 10.0 mi Calm Calm - N/A   Scattered Clouds
3:37 PM 73.4 °F 32.0 °F 22% 30.76 in 10.0 mi Calm Calm - N/A   Scattered Clouds
3:57 PM 73.4 °F 28.4 °F 19% 30.75 in 10.0 mi Calm Calm - N/A   Clear
4:17 PM 73.4 °F 23.0 °F 15% 30.75 in 10.0 mi WNW 3.5 mph - N/A   Clear
4:37 PM 73.4 °F 23.0 °F 15% 30.75 in 10.0 mi Calm Calm - N/A   Clear
4:57 PM 75.2 °F 26.6 °F 17% 30.74 in 10.0 mi Calm Calm - N/A   Clear
5:17 PM 75.2 °F 28.4 °F 18% 30.74 in 10.0 mi NW 3.5 mph - N/A   Clear
5:35 PM 73.4 °F 30.2 °F 20% 30.73 in 10.0 mi NNW 4.6 mph - N/A   Clear
5:57 PM 73.4 °F 32.0 °F 22% 30.73 in 10.0 mi North 3.5 mph - N/A   Clear
6:17 PM 73.4 °F 32.0 °F 22% 30.73 in 10.0 mi Calm Calm - N/A   Clear
6:37 PM 73.4 °F 32.0 °F 22% 30.73 in 10.0 mi NW 4.6 mph - N/A   Clear
6:57 PM 73.4 °F 32.0 °F 22% 30.73 in 10.0 mi NNW 4.6 mph - N/A   Clear
7:17 PM 71.6 °F 30.2 °F 22% 30.73 in 10.0 mi Calm Calm - N/A   Clear
7:36 PM 71.6 °F 30.2 °F 22% 30.73 in 10.0 mi West 3.5 mph - N/A   Clear
7:57 PM 71.6 °F 30.2 °F 22% 30.73 in 10.0 mi Calm Calm - N/A   Clear
8:17 PM 69.8 °F 32.0 °F 25% 30.73 in 10.0 mi WNW 3.5 mph - N/A   Clear
8:36 PM 68.0 °F 32.0 °F 26% 30.74 in 7.0 mi NW 3.5 mph - N/A   Clear
8:57 PM 68.0 °F 30.2 °F 24% 30.74 in 7.0 mi NNW 3.5 mph - N/A   Clear
9:15 PM 68.0 °F 32.0 °F 26% 30.74 in 10.0 mi North 6.9 mph - N/A   Clear
9:36 PM 66.2 °F 32.0 °F 28% 30.75 in 10.0 mi North 5.8 mph - N/A   Clear
9:57 PM 64.4 °F 32.0 °F 30% 30.75 in 10.0 mi NE 4.6 mph - N/A   Clear
10:17 PM 62.6 °F 32.0 °F 32% 30.76 in 10.0 mi NE 4.6 mph - N/A   Clear
10:37 PM 62.6 °F 32.0 °F 32% 30.76 in 10.0 mi NE 4.6 mph - N/A   Clear
10:57 PM 62.6 °F 32.0 °F 32% 30.76 in 7.0 mi NE 3.5 mph - N/A   Clear
11:17 PM 62.6 °F 32.0 °F 32% 30.76 in 10.0 mi NE 4.6 mph - N/A   Clear
11:38 PM 64.4 °F 32.0 °F 30% 30.75 in 10.0 mi Calm Calm - N/A   Clear
11:58 PM 62.6 °F 32.0 °F 32% 30.75 in 10.0 mi Calm Calm - N/A   Clear